Vertical_Velocity
-1 -1 -0 1 3 0 -5 -8 -3 -1 -4 -1 -1 -1 -4 -6 -5 -2 -2 1 -3 2
-1 -1 -3 -5 -4 -2 -4 -6 -3 -3 5 6 3 1 2 4 -1 -2 -1 -2 -1 -1
-3 -1 3 -1 -4 -2 0 1 2 -2 -3 -2 -1 -3 -4 -2 -0 2 -1 -2 -1 -2
-3 -4 -3 -1 3 1 -5 -5 -3 -2 -3 -4 -3 -8 -3 -2 -0 -2 -4 -5 -2 2
-3 -0 -1 -5 -3 -5 -4 -3 -1 -1 -2 -4 -4 1 -2 -0 -3 -3 -2 -1 -3 1
-3 -3 -3 -3 -3 -4 -2 -2 -2 -1 -1 -2 -2 -0 -1 -2 -4 -4 -1 -3 -0 1
-3 -2 -1 -2 -3 -1 -2 -3 -2 -6 -6 -5 -3 -1 -1 -1 -2 -0 0 1 -1 -1
-2 1 -1 -2 -1 -2 -3 -2 -4 -5 -1 -1 -1 -1 -0 -1 -2 -2 1 -0 -1 -1
0 0 -5 -5 -2 1 -0 0 -2 -2 -4 -1 -0 -2 -2 -0 -0 -1 -3 -0 1 0
-2 -2 -3 -3 -4 -5 -3 -2 0 1 -1 -2 -0 1 0 -0 -1 -2 -2 -3 -2 2
-2 1 -2 -2 -1 -1 -2 -3 -1 0 1 1 2 1 -0 2 0 -1 -2 -3 -2 -0
-4 -2 0 1 -2 -2 -1 -2 0 0 0 1 0 -1 -1 1 -0 -1 -1 -2 -4 -1
-3 -2 1 -3 -1 -3 -2 -0 -1 -1 -0 1 0 -1 -1 -0 0 -2 1 -2 -2 -1
-1 1 -1 -0 -1 -2 0 0 1 2 1 2 1 -1 -1 -1 -2 1 0 1 3 -1
Height
5709 5702 5695 5687 5679 5671 5662 5653 5643 5632 5618 5604 5589 5574 5559 5545 5531 5519 5505 5495 5488 5484
5698 5690 5682 5675 5667 5657 5647 5636 5625 5611 5597 5581 5564 5549 5534 5518 5503 5491 5482 5474 5469 5464
5685 5678 5671 5662 5652 5641 5629 5615 5601 5587 5572 5557 5543 5527 5511 5494 5480 5472 5465 5459 5453 5448
5672 5664 5655 5645 5634 5621 5608 5595 5581 5567 5551 5534 5518 5501 5486 5474 5466 5458 5452 5447 5443 5438
5658 5649 5639 5629 5617 5605 5592 5577 5562 5546 5529 5512 5496 5480 5468 5461 5455 5450 5445 5440 5433 5428
5646 5636 5625 5614 5602 5588 5573 5557 5541 5525 5508 5494 5479 5467 5459 5453 5448 5442 5437 5430 5424 5418
5632 5622 5610 5597 5583 5569 5553 5537 5520 5504 5488 5475 5465 5458 5452 5446 5440 5434 5427 5420 5412 5405
5618 5607 5594 5581 5565 5549 5532 5516 5501 5486 5472 5463 5456 5449 5444 5438 5432 5426 5419 5410 5402 5393
5604 5591 5576 5562 5547 5531 5514 5498 5483 5469 5460 5452 5447 5441 5436 5430 5424 5417 5409 5402 5393 5384
5586 5572 5556 5542 5527 5511 5496 5482 5469 5457 5450 5443 5438 5433 5428 5422 5416 5409 5400 5392 5384 5376
5570 5555 5540 5524 5508 5493 5478 5465 5455 5447 5441 5435 5431 5426 5420 5414 5408 5401 5392 5384 5375 5368
5553 5539 5523 5507 5491 5477 5464 5452 5443 5437 5432 5427 5422 5417 5412 5407 5400 5393 5384 5375 5367 5360
5535 5521 5505 5489 5475 5462 5451 5441 5434 5429 5424 5419 5415 5410 5405 5399 5392 5386 5377 5368 5360 5353
5518 5503 5488 5474 5461 5449 5440 5432 5426 5421 5417 5412 5408 5403 5397 5392 5385 5379 5371 5363 5355 5348